Time,TemperatureF,DewpointF,PressureIn,WindDirection,WindDirectionDegrees,WindSpeedMPH,WindSpeedGustMPH,Humidity,HourlyPrecipIn,Conditions,Clouds,dailyrainin,SoftwareType,DateUTC
2013-06-30 00:02:00,64.0,55.0,-100.00,South,191,6.0,9.0,72,0.00,,,0.00,,2013-06-30 06:02:00,
2013-06-30 00:12:00,64.0,55.0,-100.00,South,191,6.0,9.0,72,0.00,,,0.00,,2013-06-30 06:12:00,
2013-06-30 00:43:00,62.0,55.0,-100.00,SW,214,7.0,8.0,76,0.00,,,0.00,,2013-06-30 06:43:00,
2013-06-30 00:53:00,62.0,55.0,-100.00,SW,214,7.0,8.0,76,0.00,,,0.00,,2013-06-30 06:53:00,
2013-06-30 01:02:00,62.0,55.0,-100.00,SW,214,7.0,8.0,76,0.00,,,0.00,,2013-06-30 07:02:00,
2013-06-30 01:12:00,62.0,55.0,-100.00,SW,214,7.0,8.0,76,0.00,,,0.00,,2013-06-30 07:12:00,
2013-06-30 01:53:00,58.0,53.0,-100.00,SW,215,6.0,8.0,84,0.00,,,0.00,,2013-06-30 07:53:00,
2013-06-30 02:02:00,58.0,53.0,-100.00,SW,215,6.0,8.0,84,0.00,,,0.00,,2013-06-30 08:02:00,
2013-06-30 02:11:00,58.0,53.0,-100.00,SW,215,6.0,8.0,84,0.00,,,0.00,,2013-06-30 08:11:00,
2013-06-30 02:42:00,57.0,53.0,-100.00,South,175,5.0,7.0,88,0.00,,,0.00,,2013-06-30 08:42:00,
2013-06-30 02:53:00,57.0,53.0,-100.00,South,175,5.0,7.0,88,0.00,,,0.00,,2013-06-30 08:53:00,
2013-06-30 03:01:00,57.0,53.0,-100.00,South,175,5.0,7.0,88,0.00,,,0.00,,2013-06-30 09:01:00,
2013-06-30 03:11:00,57.0,53.0,-100.00,South,175,5.0,7.0,88,0.00,,,0.00,,2013-06-30 09:11:00,
2013-06-30 04:42:00,53.0,52.0,-100.00,South,189,4.0,5.0,96,-99.99,,,-99.99,,2013-06-30 10:42:00,
2013-06-30 04:53:00,53.0,52.0,-100.00,South,189,4.0,5.0,96,-99.99,,,-99.99,,2013-06-30 10:53:00,
2013-06-30 05:02:00,53.0,52.0,-100.00,South,189,4.0,5.0,96,-99.99,,,-99.99,,2013-06-30 11:02:00,
2013-06-30 05:11:00,53.0,52.0,-100.00,South,189,4.0,5.0,96,-99.99,,,-99.99,,2013-06-30 11:11:00,
2013-06-30 05:43:00,54.0,52.0,-100.00,SW,232,2.0,4.0,94,0.01,,,0.01,,2013-06-30 11:43:00,
2013-06-30 05:53:00,54.0,52.0,-100.00,SW,232,2.0,4.0,94,0.01,,,0.01,,2013-06-30 11:53:00,
2013-06-30 06:01:00,54.0,52.0,-100.00,SW,232,2.0,4.0,94,0.01,,,0.01,,2013-06-30 12:01:00,
2013-06-30 06:11:00,54.0,52.0,-100.00,SW,232,2.0,4.0,94,0.01,,,0.01,,2013-06-30 12:11:00,
2013-06-30 06:43:00,53.0,52.0,-100.00,WNW,298,1.0,3.0,94,0.00,,,0.01,,2013-06-30 12:43:00,
2013-06-30 06:52:00,53.0,52.0,-100.00,WNW,298,1.0,3.0,94,0.00,,,0.01,,2013-06-30 12:52:00,
2013-06-30 07:02:00,53.0,52.0,-100.00,WNW,298,1.0,3.0,94,0.00,,,0.01,,2013-06-30 13:02:00,
2013-06-30 07:12:00,53.0,52.0,-100.00,WNW,298,1.0,3.0,94,0.00,,,0.01,,2013-06-30 13:12:00,
2013-06-30 07:43:00,61.0,54.0,-100.00,NNE,12,1.0,2.0,78,0.00,,,0.01,,2013-06-30 13:43:00,
2013-06-30 07:53:00,61.0,54.0,-100.00,NNE,12,1.0,2.0,78,0.00,,,0.01,,2013-06-30 13:53:00,
2013-06-30 08:02:00,61.0,54.0,-100.00,NNE,12,1.0,2.0,78,0.00,,,0.01,,2013-06-30 14:02:00,
2013-06-30 08:11:00,61.0,54.0,-100.00,NNE,12,1.0,2.0,78,0.00,,,0.01,,2013-06-30 14:11:00,
2013-06-30 08:44:00,61.0,53.0,-100.00,SW,229,2.0,4.0,75,-99.99,,,0.00,,2013-06-30 14:44:00,
2013-06-30 08:52:00,61.0,53.0,-100.00,SW,229,2.0,4.0,75,-99.99,,,0.00,,2013-06-30 14:52:00,
2013-06-30 09:02:00,61.0,53.0,-100.00,SW,229,2.0,4.0,75,-99.99,,,0.00,,2013-06-30 15:02:00,
2013-06-30 09:12:00,61.0,53.0,-100.00,SW,229,2.0,4.0,75,-99.99,,,0.00,,2013-06-30 15:12:00,
2013-06-30 09:44:00,66.0,55.0,-100.00,South,174,3.0,6.0,69,0.00,,,0.00,,2013-06-30 15:44:00,
2013-06-30 09:53:00,66.0,55.0,-100.00,South,174,3.0,6.0,69,0.00,,,0.00,,2013-06-30 15:53:00,
2013-06-30 10:01:00,66.0,55.0,-100.00,South,174,3.0,6.0,69,0.00,,,0.00,,2013-06-30 16:01:00,
2013-06-30 10:11:00,66.0,55.0,-100.00,South,174,3.0,6.0,69,0.00,,,0.00,,2013-06-30 16:11:00,
2013-06-30 10:53:00,74.0,55.0,-100.00,NE,48,1.0,4.0,53,0.00,,,0.00,,2013-06-30 16:53:00,
2013-06-30 11:01:00,74.0,55.0,-100.00,NE,48,1.0,4.0,53,0.00,,,0.00,,2013-06-30 17:01:00,
2013-06-30 11:11:00,74.0,55.0,-100.00,NE,48,1.0,4.0,53,0.00,,,0.00,,2013-06-30 17:11:00,
2013-06-30 11:43:00,75.0,54.0,-100.00,NNE,21,5.0,8.0,47,0.00,,,0.00,,2013-06-30 17:43:00,
2013-06-30 11:52:00,75.0,54.0,-100.00,NNE,21,5.0,8.0,47,0.00,,,0.00,,2013-06-30 17:52:00,
2013-06-30 12:01:00,75.0,54.0,-100.00,NNE,21,5.0,8.0,47,0.00,,,0.00,,2013-06-30 18:01:00,
2013-06-30 12:12:00,75.0,54.0,-100.00,NNE,21,5.0,8.0,47,0.00,,,0.00,,2013-06-30 18:12:00,
2013-06-30 13:43:00,82.0,57.0,-100.00,NE,39,6.0,12.0,43,-99.99,,,0.00,,2013-06-30 19:43:00,
2013-06-30 13:53:00,82.0,57.0,-100.00,NE,39,6.0,12.0,43,-99.99,,,0.00,,2013-06-30 19:53:00,
2013-06-30 14:01:00,82.0,57.0,-100.00,NE,39,6.0,12.0,43,-99.99,,,0.00,,2013-06-30 20:01:00,
2013-06-30 14:11:00,82.0,57.0,-100.00,NE,39,6.0,12.0,43,-99.99,,,0.00,,2013-06-30 20:11:00,
2013-06-30 14:42:00,84.0,55.0,-100.00,NNE,25,7.0,13.0,37,0.00,,,0.00,,2013-06-30 20:42:00,
2013-06-30 14:52:00,84.0,55.0,-100.00,NNE,25,7.0,13.0,37,0.00,,,0.00,,2013-06-30 20:52:00,
2013-06-30 15:01:00,84.0,55.0,-100.00,NNE,25,7.0,13.0,37,0.00,,,0.00,,2013-06-30 21:01:00,
2013-06-30 15:11:00,84.0,55.0,-100.00,NNE,25,7.0,13.0,37,0.00,,,0.00,,2013-06-30 21:11:00,
2013-06-30 15:42:00,86.0,52.0,-100.00,NNE,23,8.0,15.0,32,0.00,,,0.00,,2013-06-30 21:42:00,
2013-06-30 15:53:00,86.0,52.0,-100.00,NNE,23,8.0,15.0,32,0.00,,,0.00,,2013-06-30 21:53:00,
2013-06-30 16:01:00,86.0,52.0,-100.00,NNE,23,8.0,15.0,32,0.00,,,0.00,,2013-06-30 22:01:00,
2013-06-30 16:11:00,86.0,52.0,-100.00,NNE,23,8.0,15.0,32,0.00,,,0.00,,2013-06-30 22:11:00,
2013-06-30 16:43:00,87.0,51.0,-100.00,NNE,12,5.0,14.0,30,0.00,,,0.00,,2013-06-30 22:43:00,
2013-06-30 16:53:00,87.0,51.0,-100.00,NNE,12,5.0,14.0,30,0.00,,,0.00,,2013-06-30 22:53:00,
2013-06-30 17:01:00,87.0,51.0,-100.00,NNE,12,5.0,14.0,30,0.00,,,0.00,,2013-06-30 23:01:00,
2013-06-30 17:11:00,87.0,51.0,-100.00,NNE,12,5.0,14.0,30,0.00,,,0.00,,2013-06-30 23:11:00,
2013-06-30 17:43:00,88.0,49.0,-100.00,NNE,16,7.0,16.0,27,0.00,,,0.00,,2013-06-30 23:43:00,
2013-06-30 17:53:00,88.0,49.0,-100.00,NNE,16,7.0,16.0,27,0.00,,,0.00,,2013-06-30 23:53:00,
2013-06-30 18:01:00,88.0,49.0,-100.00,NNE,16,7.0,16.0,27,0.00,,,0.00,,2013-07-01 00:01:00,
2013-06-30 18:11:00,88.0,49.0,-100.00,NNE,16,7.0,16.0,27,0.00,,,0.00,,2013-07-01 00:11:00,
2013-06-30 18:42:00,87.0,48.0,-100.00,North,354,10.0,15.0,26,0.00,,,0.00,,2013-07-01 00:42:00,
2013-06-30 18:52:00,87.0,48.0,-100.00,North,354,10.0,15.0,26,0.00,,,0.00,,2013-07-01 00:52:00,
2013-06-30 19:01:00,87.0,48.0,-100.00,North,354,10.0,15.0,26,0.00,,,0.00,,2013-07-01 01:01:00,
2013-06-30 19:11:00,87.0,48.0,-100.00,North,354,10.0,15.0,26,0.00,,,0.00,,2013-07-01 01:11:00,
2013-06-30 19:42:00,86.0,51.0,-100.00,NE,35,7.0,11.0,31,0.00,,,0.00,,2013-07-01 01:42:00,
2013-06-30 19:52:00,86.0,51.0,-100.00,NE,35,7.0,11.0,31,0.00,,,0.00,,2013-07-01 01:52:00,
2013-06-30 20:02:00,86.0,51.0,-100.00,NE,35,7.0,11.0,31,0.00,,,0.00,,2013-07-01 02:02:00,
2013-06-30 20:11:00,86.0,51.0,-100.00,NE,35,7.0,11.0,31,0.00,,,0.00,,2013-07-01 02:11:00,
2013-06-30 20:43:00,81.0,56.0,-100.00,NNE,15,5.0,8.0,43,0.00,,,0.00,,2013-07-01 02:43:00,
2013-06-30 20:54:00,81.0,56.0,-100.00,NNE,15,5.0,8.0,43,0.00,,,0.00,,2013-07-01 02:54:00,
2013-06-30 21:01:00,81.0,56.0,-100.00,NNE,15,5.0,8.0,43,0.00,,,0.00,,2013-07-01 03:01:00,
2013-06-30 21:11:00,81.0,56.0,-100.00,NNE,15,5.0,8.0,43,0.00,,,0.00,,2013-07-01 03:11:00,
2013-06-30 21:43:00,74.0,55.0,-100.00,NNW,334,5.0,6.0,50,0.00,,,-99.99,,2013-07-01 03:43:00,
2013-06-30 21:52:00,74.0,55.0,-100.00,NNW,334,5.0,6.0,50,0.00,,,-99.99,,2013-07-01 03:52:00,
2013-06-30 22:01:00,74.0,55.0,-100.00,NNW,334,5.0,6.0,50,0.00,,,-99.99,,2013-07-01 04:01:00,
2013-06-30 22:11:00,74.0,55.0,-100.00,NNW,334,5.0,6.0,50,0.00,,,-99.99,,2013-07-01 04:11:00,
2013-06-30 22:42:00,71.0,51.0,-100.00,NW,308,7.0,10.0,49,0.00,,,-99.99,,2013-07-01 04:42:00,
2013-06-30 22:53:00,71.0,51.0,-100.00,NW,308,7.0,10.0,49,0.00,,,-99.99,,2013-07-01 04:53:00,
2013-06-30 23:01:00,71.0,51.0,-100.00,NW,308,7.0,10.0,49,0.00,,,-99.99,,2013-07-01 05:01:00,
2013-06-30 23:11:00,71.0,51.0,-100.00,NW,308,7.0,10.0,49,0.00,,,-99.99,,2013-07-01 05:11:00,
2013-06-30 23:42:00,71.0,53.0,-100.00,NNW,338,8.0,12.0,52,0.00,,,0.00,,2013-07-01 05:42:00,
2013-06-30 23:52:00,71.0,53.0,-100.00,NNW,338,8.0,12.0,52,0.00,,,0.00,,2013-07-01 05:52:00,